星链-2325 (STARLINK-2325 )

导读

STARLINK-2325是美国太空探索技术公司(SpaceX)星链(Starlink)项目中的低轨通信卫星,于北京时间2021年3月24日发射,属于Starlink V1.0批次。该卫星旨在为全球提供高速低延迟互联网服务,配备氪离子推进系统,运行在倾角53.04°的近地轨道,截至2025年2月已再入大气层陨落,其部署增强了星链网络的覆盖能力。

基本信息
目录编号:
47979
目录名称:
STARLINK-2325
国际标识:
2021-024C
轨道中心:
EARTH
卫星名称:
星链-2325
卫星全名:
星链-2325 (STARLINK-2325 )
卫星状态:
已陨落 最后检测时间 2025-02-22
发射日期:
2021-03-24 UTC
国别 :
美国 (US)
星等 :
--
轨道信息
数据来源 国际轨道数据
星历时间: 2025-02-22T01:48:03+0800
轨道信息已过期481天
半长轴: 6522.872km
偏心率: 0.0002508
轨道倾角: 53.042°
近地点辐角 9.020°
升交点赤经 141.351°
平近点角 133.495°
近地点: 143.101km
远地点: 146.373km
周期: 87.381分钟
每日圈数: 16.479518
详细信息
固有亮度:
5
最大亮度:
2.5
卫星平台:
Starlink V1.0
覆盖范围:
全球
运营商:
太空探索技术公司
运营商所在国:
美国
制造商(研发单位):
太空探索技术公司
制造商所在国:
美国
使用方式:
暂无
卫星简介
星链(Starlink)计划是由太空探索技术公司(SpaceX)提出的一个巨型低轨卫星互联网星座项目,计划在2019年至2024年间在太空搭建由约1.2万颗卫星组成的“星链”网络,其中1584颗将部署在地球上空550千米处的近地轨道,并从2020年开始工作。该卫星仍在工作。